Location: ???????
(55.7027°N, 37.3832°E)
Time: 21:35:57
(UTC+00:00)

Cosmos 407 Rocket - Pass Details

Date: 14 April 2026
Orbit: 740 x 781 km, 74.0° (Epoch: 16 May)

Event Time Altitude Azimuth Distance (km) Brightness Sun altitude
Rises 21:31:05 0° 328° (NNW) 3,215 7.6 -24.6°
Reaches altitude 10° 21:33:40 10° 318° (NW) 2,280 6.5 -24.6°
Enters shadow 21:38:05 32° 260° (W) 1,258 4.5 -24.6°
